TimeCDT,TemperatureF,Dew PointF,Humidity,Sea Level PressureIn,VisibilityMPH,Wind Direction,Wind SpeedMPH,Gust SpeedMPH,PrecipitationIn,Events,Conditions,WindDirDegrees,DateUTC
12:15 AM,-9999,-9999,N/A,30.39,10.0,East,4.6,-,N/A,,Clear,80,2013-10-14 05:15:00
12:35 AM,-9999,-9999,N/A,30.38,10.0,Calm,Calm,-,N/A,,Clear,0,2013-10-14 05:35:00
12:55 AM,-9999,-9999,N/A,30.38,10.0,Calm,Calm,-,N/A,,Clear,0,2013-10-14 05:55:00
1:15 AM,-9999,-9999,N/A,30.39,10.0,Calm,Calm,-,N/A,,Clear,0,2013-10-14 06:15:00
1:35 AM,-9999,-9999,N/A,30.39,10.0,Calm,Calm,-,N/A,,Clear,0,2013-10-14 06:35:00
1:55 AM,-9999,-9999,N/A,30.39,10.0,Calm,Calm,-,N/A,,Clear,0,2013-10-14 06:55:00
2:15 AM,-9999,-9999,N/A,30.40,10.0,Calm,Calm,-,N/A,,Clear,0,2013-10-14 07:15:00
2:35 AM,-9999,-9999,N/A,30.40,10.0,East,3.5,-,N/A,,Clear,100,2013-10-14 07:35:00
2:55 AM,-9999,-9999,N/A,30.40,10.0,ESE,3.5,-,N/A,,Clear,110,2013-10-14 07:55:00
3:15 AM,-9999,-9999,N/A,30.40,10.0,East,4.6,-,N/A,,Clear,100,2013-10-14 08:15:00
3:35 AM,-9999,-9999,N/A,30.39,10.0,East,4.6,-,N/A,,Clear,90,2013-10-14 08:35:00
3:55 AM,-9999,-9999,N/A,30.39,10.0,ENE,3.5,-,N/A,,Clear,70,2013-10-14 08:55:00
4:15 AM,-9999,-9999,N/A,30.39,10.0,ENE,4.6,-,N/A,,Clear,70,2013-10-14 09:15:00
4:35 AM,-9999,-9999,N/A,30.39,10.0,East,3.5,-,N/A,,Clear,80,2013-10-14 09:35:00
4:55 AM,-9999,-9999,N/A,30.39,10.0,East,4.6,-,N/A,,Clear,80,2013-10-14 09:55:00
5:15 AM,-9999,-9999,N/A,30.38,10.0,East,3.5,-,N/A,,Clear,90,2013-10-14 10:15:00
5:35 AM,-9999,-9999,N/A,30.38,8.0,East,3.5,-,N/A,,Clear,80,2013-10-14 10:35:00
5:55 AM,-9999,-9999,N/A,30.38,9.0,East,3.5,-,N/A,,Clear,90,2013-10-14 10:55:00
6:15 AM,-9999,-9999,N/A,30.38,10.0,ESE,4.6,-,N/A,,Clear,110,2013-10-14 11:15:00
6:35 AM,-9999,-9999,N/A,30.39,10.0,ESE,4.6,-,N/A,,Clear,110,2013-10-14 11:35:00
6:55 AM,-9999,-9999,N/A,30.39,10.0,East,3.5,-,N/A,,Clear,80,2013-10-14 11:55:00
7:15 AM,-9999,-9999,N/A,30.38,8.0,East,4.6,-,N/A,,Clear,80,2013-10-14 12:15:00
7:35 AM,-9999,-9999,N/A,30.38,9.0,East,4.6,-,N/A,,Clear,80,2013-10-14 12:35:00
7:55 AM,-9999,-9999,N/A,30.38,10.0,Calm,Calm,-,N/A,,Clear,0,2013-10-14 12:55:00
8:15 AM,-9999,-9999,N/A,30.38,10.0,East,4.6,-,N/A,,Clear,90,2013-10-14 13:15:00
8:35 AM,-9999,-9999,N/A,30.38,10.0,East,4.6,-,N/A,,Clear,90,2013-10-14 13:35:00
8:55 AM,-9999,-9999,N/A,30.37,10.0,East,8.1,-,N/A,,Clear,90,2013-10-14 13:55:00
9:15 AM,-9999,-9999,N/A,30.37,10.0,East,6.9,-,N/A,,Clear,90,2013-10-14 14:15:00
9:35 AM,-9999,-9999,N/A,30.37,6.0,East,8.1,-,N/A,,Clear,90,2013-10-14 14:35:00
9:55 AM,-9999,-9999,N/A,30.37,8.0,East,8.1,-,N/A,,Clear,100,2013-10-14 14:55:00
10:15 AM,-9999,-9999,N/A,30.36,8.0,ESE,13.8,17.3,N/A,,Clear,110,2013-10-14 15:15:00
10:35 AM,-9999,-9999,N/A,30.36,9.0,ESE,11.5,-,N/A,,Clear,110,2013-10-14 15:35:00
10:55 AM,-9999,-9999,N/A,30.36,3.0,SE,12.7,20.7,N/A,,Partly Cloudy,130,2013-10-14 15:55:00
11:15 AM,-9999,-9999,N/A,30.35,10.0,ESE,13.8,23.0,N/A,,Partly Cloudy,120,2013-10-14 16:15:00
11:35 AM,-9999,-9999,N/A,30.34,10.0,ESE,12.7,18.4,N/A,,Clear,120,2013-10-14 16:35:00
11:55 AM,-9999,-9999,N/A,30.32,10.0,East,15.0,-,N/A,,Clear,100,2013-10-14 16:55:00
12:15 PM,-9999,-9999,N/A,30.31,10.0,East,17.3,-,N/A,,Clear,100,2013-10-14 17:15:00
12:35 PM,-9999,-9999,N/A,30.30,10.0,ESE,12.7,23.0,N/A,,Clear,110,2013-10-14 17:35:00
12:55 PM,-9999,-9999,N/A,30.28,10.0,ESE,12.7,20.7,N/A,,Clear,120,2013-10-14 17:55:00
1:15 PM,-9999,-9999,N/A,30.27,10.0,East,11.5,-,N/A,,Clear,100,2013-10-14 18:15:00
1:35 PM,-9999,-9999,N/A,30.26,10.0,East,12.7,18.4,N/A,,Clear,100,2013-10-14 18:35:00
1:55 PM,-9999,-9999,N/A,30.25,10.0,ESE,12.7,-,N/A,,Clear,120,2013-10-14 18:55:00
2:15 PM,-9999,-9999,N/A,30.23,10.0,East,11.5,17.3,N/A,,Clear,100,2013-10-14 19:15:00
2:35 PM,-9999,-9999,N/A,30.23,10.0,ESE,15.0,19.6,N/A,,Clear,110,2013-10-14 19:35:00
2:55 PM,-9999,-9999,N/A,30.22,10.0,ESE,11.5,19.6,N/A,,Clear,110,2013-10-14 19:55:00
3:15 PM,-9999,-9999,N/A,30.21,10.0,East,16.1,19.6,N/A,,Clear,100,2013-10-14 20:15:00
3:35 PM,-9999,-9999,N/A,30.20,10.0,East,15.0,21.9,N/A,,Clear,90,2013-10-14 20:35:00
3:55 PM,-9999,-9999,N/A,30.19,10.0,ESE,13.8,18.4,N/A,,Clear,110,2013-10-14 20:55:00
4:15 PM,-9999,-9999,N/A,30.17,10.0,ESE,13.8,19.6,N/A,,Clear,110,2013-10-14 21:15:00
4:35 PM,-9999,-9999,N/A,30.17,10.0,SE,11.5,18.4,N/A,,Clear,130,2013-10-14 21:35:00
4:55 PM,-9999,-9999,N/A,30.16,10.0,ESE,10.4,16.1,N/A,,Clear,120,2013-10-14 21:55:00
5:15 PM,-9999,-9999,N/A,30.16,10.0,ESE,11.5,18.4,N/A,,Clear,120,2013-10-14 22:15:00
5:35 PM,-9999,-9999,N/A,30.17,10.0,ESE,11.5,-,N/A,,Clear,110,2013-10-14 22:35:00
5:55 PM,-9999,-9999,N/A,30.17,10.0,ESE,9.2,-,N/A,,Clear,120,2013-10-14 22:55:00
6:15 PM,-9999,-9999,N/A,30.17,10.0,ESE,9.2,-,N/A,,Clear,110,2013-10-14 23:15:00
6:35 PM,-9999,-9999,N/A,30.16,10.0,East,9.2,-,N/A,,Clear,90,2013-10-14 23:35:00
6:55 PM,-9999,-9999,N/A,30.14,10.0,East,9.2,-,N/A,,Clear,90,2013-10-14 23:55:00
7:15 PM,-9999,-9999,N/A,30.15,10.0,East,8.1,-,N/A,,Clear,90,2013-10-15 00:15:00
7:35 PM,-9999,-9999,N/A,30.14,10.0,East,8.1,-,N/A,,Clear,90,2013-10-15 00:35:00
7:55 PM,-9999,-9999,N/A,30.14,10.0,East,11.5,-,N/A,,Clear,90,2013-10-15 00:55:00
8:15 PM,-9999,-9999,N/A,30.13,10.0,East,12.7,-,N/A,,Clear,80,2013-10-15 01:15:00
8:35 PM,-9999,-9999,N/A,30.13,10.0,East,11.5,-,N/A,,Clear,90,2013-10-15 01:35:00
8:55 PM,-9999,-9999,N/A,30.13,10.0,East,10.4,-,N/A,,Clear,90,2013-10-15 01:55:00
9:15 PM,-9999,-9999,N/A,30.13,10.0,East,10.4,-,N/A,,Clear,90,2013-10-15 02:15:00
9:35 PM,-9999,-9999,N/A,30.12,10.0,East,10.4,-,N/A,,Clear,80,2013-10-15 02:35:00
9:55 PM,-9999,-9999,N/A,30.12,10.0,East,8.1,-,N/A,,Clear,100,2013-10-15 02:55:00
10:15 PM,-9999,-9999,N/A,30.12,10.0,East,6.9,-,N/A,,Clear,90,2013-10-15 03:15:00
10:35 PM,-9999,-9999,N/A,30.11,10.0,East,8.1,-,N/A,,Clear,80,2013-10-15 03:35:00
10:55 PM,-9999,-9999,N/A,30.10,10.0,East,9.2,-,N/A,,Clear,90,2013-10-15 03:55:00
11:15 PM,-9999,-9999,N/A,30.09,10.0,East,10.4,-,N/A,,Clear,90,2013-10-15 04:15:00
11:35 PM,-9999,-9999,N/A,30.08,10.0,East,8.1,-,N/A,,Clear,100,2013-10-15 04:35:00
11:55 PM,-9999,-9999,N/A,30.08,10.0,East,5.8,-,N/A,,Clear,100,2013-10-15 04:55:00